Regional Weather Roundup
Issued by NWS

Home | Current Version | Previous Version | Graphics & Text | Print | Product List | Glossary On
Versions: 1 2 3 4 5 6 7 8 9 10 11 12 13 14 15 16 17 18 19 20 21 22 23 24 25 26 27 28 29 30 31 32 33 34 35 36 37 38 39 40 41 42 43 44 45 46 47 48 49 50
000
ASUS45 KCYS 282310
RWRWY

WYOMING REGIONAL WEATHER ROUNDUP
NATIONAL WEATHER SERVICE CHEYENNE WY
500 PM MDT MON JUL 28 2014

NOTE:  "FAIR" INDICATES FEW OR NO CLOUDS BELOW 12,000 FEET
WITH NO SIGNIFICANT WEATHER AND/OR OBSTRUCTIONS TO VISIBILITY.

WYZ001-290000-
YELLOWSTONE NATIONAL PARK

CITY           SKY/WX    TMP DP  RH WIND       PRES   REMARKS
LK YELLOWSTONE   N/A     73  32  22 W9        30.48R
W YELLOWSTONE  NOT AVBL

$$
WYZ002>013-054>058-071-098>099-290000-
NORTHERN WYOMING

CITY           SKY/WX    TMP DP  RH WIND       PRES   REMARKS
JACKSON        NOT AVBL
CODY           NOT AVBL
GREYBULL       MOSUNNY   96  33  11 E3        30.11F HX  91
WORLAND        SUNNY     95  35  12 N8        30.12F HX  90
SHERIDAN       MOSUNNY   90  47  22 E5        30.19F
BUFFALO        MOSUNNY   86  44  23 VRB5      30.27F
GILLETTE       SUNNY     88  46  23 CALM      30.22F
HULETT         FAIR      81  50  34 MISG      30.28
NEWCASTLE      FAIR      86  43  22 MISG      30.24

$$
WYZ014>020-022>026-101>103-290000-
CENTRAL WYOMING

CITY           SKY/WX    TMP DP  RH WIND       PRES   REMARKS
BIG PINEY      CLOUDY    84  29  13 VRB3      30.32F
PINEDALE       CLOUDY    81  30  16 N7        30.34F
DUBOIS         FAIR      79  32  18 S8        30.36F HAZE
LANDER         PTSUNNY   93  36  13 NE12      30.20F
RIVERTON       MOSUNNY   89  29  11 CALM      30.22F
CASPER         SUNNY     90  35  14 E8G22     30.24F
DOUGLAS        SUNNY     89  39  17 VRB5      30.24F

$$
WYZ021-027>030-104>119-290000-
SOUTHERN WYOMING

CITY           SKY/WX    TMP DP  RH WIND       PRES   REMARKS
EVANSTON       CLOUDY    66  50  56 S22G36    30.38R
FORT BRIDGER   MOCLDY    79  40  25 S21G26    30.35F
ROCK SPRINGS   PTSUNNY   87  26  11 E12G18    30.28F
DIXON          FAIR      91  26   9 NE5       30.28F
RAWLINS        SUNNY     88  31  13 E15       30.31F
SARATOGA       FAIR      86  30  13 NE8       30.33F
LARAMIE        MOSUNNY   77  42  28 E9        30.38F
CHEYENNE       MOSUNNY   82  49  31 SW9       30.32F
TORRINGTON     SUNNY     89  53  29 SE8       30.20F
PINE BLUFFS    FAIR      86  50  28 SE14G20   30.26F

$$


USA.gov is the U.S. government's official web portal to all federal, state and local government web resources and services.